Location: Boiro
(42.6475°N, 8.8834°W)
Time: 09:12:12
(UTC+01:00)

Vanguard 2 - Pass Details

Date: 05 December 2021
Orbit: 553 x 2936 km, 32.9° (Epoch: 19 January)

Event Time Altitude Azimuth Distance (km) Brightness Sun altitude
Rises 15:15:16 0° 239° (WSW) 2,847 11.4 20.2°
Reaches altitude 10° 15:17:30 10° 227° (SW) 2,074 11.3 20.0°
Maximum altitude 15:21:35 29° 167° (SSE) 1,447 9.9 19.7°
Drops below altitude 10° 15:27:16 10° 109° (ESE) 2,955 10.5 19.2°
Sets 15:31:06 0° 100° (E) 4,330 11.2 18.8°
